Location: *
(55.5817°S, 142.4781°W)
Time: 22:55:37
(UTC+00:00)

Cosmos 1818 - Pass Details

Date: 29 April 2025
Orbit: 774 x 797 km, 65.0° (Epoch: 21 April)

Event Time Altitude Azimuth Distance (km) Brightness Sun altitude
Exits shadow 14:53:37 27° 252° (WSW) 1,527 4.5 -16.8°
Maximum altitude 14:56:05 42° 303° (WNW) 1,143 4.0 -16.4°
Drops below altitude 10° 15:01:10 10° 12° (NNE) 2,362 6.2 -15.7°
Sets 15:03:40 0° 18° (NNE) 3,281 7.1 -15.4°
